COSMOS 761

导读

COSMOS 761(宇宙761)是独联体(CIS)继承自苏联航天体系的人造卫星,于1975年9月17日北京时间8点成功发射。作为苏联“宇宙”系列卫星的一员,该系列卫星多承担航天技术试验、对地观测等任务,这颗卫星也承载了冷战时期苏联航天技术探索的使命,是苏联航天活动在七十年代的重要见证。

基本信息
目录编号:
8285
目录名称:
COSMOS 761
国际标识:
1975-086A
轨道中心:
EARTH
卫星名称:
COSMOS 761
卫星全名:
--
卫星状态:
在轨 (已飞行18625 天)
发射日期:
1975-09-17 UTC
国别 :
俄罗斯(独联体) (CIS)
星等 :
--
该卫星已列入 空间交会检测服务 Space Conjunction Data Service (SCDS) ,当前飞行风险评估等级: 无高风险
轨道信息
数据来源 国际轨道数据 AOE轨道数据
星历时间 2026-09-13T20:58:13+0800
20小时前
查看轨道信息
2026-09-13T00:00:00+0800
1天前
查看轨道信息
半长轴 7818.39km 7818.377km
偏心率 0.0053368 0.005259
轨道倾角 74.006° 74.003°
近地点辐角 294.312° 295.752°
升交点赤经 267.411° 268.585°
平近点角 189.386° 199.055°
近地点 1398.527km 1399.123km
远地点 1481.979km 1481.357km
周期 114.666分钟 114.666分钟
每日圈数 12.558184 12.558214
详细信息
使用方式:
暂无
2D轨道图
3D轨道图
轨道高度分析图
轨道倾角分析图
轨道综合分析图
查看轨道综合分析图
与全量物体交会距离演化趋势 订阅飞行安全评估服务
与全量物体交会风险概率演化趋势 订阅飞行安全评估服务